Weather History for KFWA - April, 2012

Change the Weather History Date:

Tuesday, April 17, 2012

  Actual Average Record
Temperature  
Mean Temperature 50 °F 51 °F  
Max Temperature 63 °F 62 °F 85 °F (2002)
Min Temperature 36 °F 39 °F 20 °F (1904)
Degree Days  
Heating Degree Days 15 15  
Month to date heating degree days 231 299  
Since 1 July heating degree days 4620 5723  
Cooling Degree Days 0 0  
Month to date cooling degree days 5 0  
Year to date cooling degree days 32 0  
Moisture  
Dew Point 38 °F    
Average Humidity 66    
Maximum Humidity 93    
Minimum Humidity 39    
Precipitation  
Precipitation 0.00 in 0.12 in 2.56 in (1963)
Month to date precipitation 0.29 2.04  
Year to date precipitation 8.29 9.05  
Snow  
Snow 0.00 in 0.00 in 1.80 in (1949)
Month to date snowfall T 0.8  
Since 1 July snowfall 32.2 33.3  
Snow Depth 0.00 in    
Sea Level Pressure  
Sea Level Pressure 30.31 in    
Wind  
Wind Speed 5 mph (WNW)    
Max Wind Speed 13 mph    
Max Gust Speed 16 mph    
Visibility 10 miles    
Events      
T = Trace of Precipitation, MM = Missing Value Source: NWS Daily Summary

Daily Weather History Graph

Daily Weather History Graph

Search for Another Location

Airport or City:

Trip Planner

Search our weather history database for the weather conditions in past years. The results will help you decide how hot, cold, wet, or windy it might be!

Date:

Astronomy

Apr. 17, 2012 Rise Set
Actual Time 6:57 AM EDT 8:23 PM EDT
Civil Twilight 6:29 AM EDT 8:51 PM EDT
Nautical Twilight 5:54 AM EDT 9:26 PM EDT
Astronomical Twilight 5:18 AM EDT 10:03 PM EDT
Moon 4:56 AM EDT (4/17) 5:14 PM EDT (4/17)
Length of Visible Light 14h 22m
Length of Day
13h 25m
Waning Crescent, 12% of the Moon is Illuminated
Apr 17
Waning Crescent
Apr 21
New
Apr 29
First Quarter
May 5
Full
May 12
Last Quarter

Hourly Weather History & Observations

Time (EDT) Temp. Windchill Dew Point Humidity Pressure Visibility Wind Dir Wind Speed Gust Speed Precip Events Conditions
12:54 AM 46.0 °F 41.9 °F 39.9 °F 79% 30.23 in 10.0 mi West 8.1 mph - N/A   Scattered Clouds
1:54 AM 44.1 °F 40.8 °F 39.0 °F 82% 30.24 in 10.0 mi West 5.8 mph - N/A   Partly Cloudy
2:54 AM 39.9 °F 36.7 °F 37.0 °F 89% 30.24 in 10.0 mi West 4.6 mph - N/A   Partly Cloudy
3:54 AM 39.9 °F 36.7 °F 37.0 °F 89% 30.26 in 10.0 mi WSW 4.6 mph - N/A   Scattered Clouds
4:54 AM 39.9 °F 36.7 °F 37.0 °F 89% 30.27 in 10.0 mi West 4.6 mph - N/A   Partly Cloudy
5:54 AM 39.0 °F - 37.0 °F 93% 30.28 in 10.0 mi Calm Calm - N/A   Scattered Clouds
6:54 AM 37.4 °F 34.9 °F 35.6 °F 93% 30.30 in 9.0 mi South 3.5 mph - N/A   Scattered Clouds
7:54 AM 41.0 °F - 39.0 °F 93% 30.34 in 10.0 mi Calm Calm - N/A   Mostly Cloudy
8:54 AM 46.9 °F - 42.1 °F 83% 30.35 in 10.0 mi Calm Calm - N/A   Mostly Cloudy
9:54 AM 51.1 °F - 39.9 °F 66% 30.37 in 10.0 mi NNW 4.6 mph - N/A   Scattered Clouds
10:54 AM 54.0 °F - 39.9 °F 59% 30.37 in 10.0 mi Variable 3.5 mph - N/A   Scattered Clouds
11:54 AM 57.0 °F - 39.9 °F 53% 30.37 in 10.0 mi WNW 6.9 mph - N/A   Mostly Cloudy
12:54 PM 59.0 °F - 42.1 °F 53% 30.37 in 10.0 mi WNW 4.6 mph - N/A   Mostly Cloudy
1:54 PM 57.9 °F - 39.0 °F 49% 30.36 in 10.0 mi West 8.1 mph - N/A   Mostly Cloudy
2:54 PM 60.1 °F - 39.0 °F 46% 30.34 in 10.0 mi WNW 9.2 mph - N/A   Mostly Cloudy
3:54 PM 62.1 °F - 37.0 °F 39% 30.32 in 10.0 mi WSW 8.1 mph 16.1 mph N/A   Mostly Cloudy
4:54 PM 61.0 °F - 36.0 °F 39% 30.31 in 10.0 mi WSW 9.2 mph - N/A   Mostly Cloudy
5:54 PM 60.1 °F - 37.9 °F 44% 30.31 in 10.0 mi NW 6.9 mph - N/A   Overcast
6:54 PM 57.9 °F - 39.0 °F 49% 30.31 in 10.0 mi NNW 5.8 mph - N/A   Mostly Cloudy
7:54 PM 55.0 °F - 39.0 °F 55% 30.30 in 10.0 mi NNW 6.9 mph - N/A   Overcast
8:54 PM 51.1 °F - 37.9 °F 61% 30.30 in 10.0 mi North 5.8 mph - N/A   Mostly Cloudy
9:54 PM 50.0 °F - 37.0 °F 61% 30.32 in 10.0 mi NNE 3.5 mph - N/A   Mostly Cloudy
10:54 PM 46.9 °F - 36.0 °F 66% 30.31 in 10.0 mi North 3.5 mph - N/A   Mostly Cloudy
11:54 PM 45.0 °F 42.6 °F 36.0 °F 71% 30.32 in 10.0 mi North 4.6 mph - N/A   Scattered Clouds